Location: Mesa Verde
(33.6055°N, 114.7275°W)
Time: 21:38:51
(UTC+00:00)

N. Korean satellite - Pass Details

Date: 30 September 2021
Orbit: 450 x 494 km, 97.3° (Epoch: 28 October)

Event Time Altitude Azimuth Distance (km) Brightness Sun altitude
Rises 12:11:18 0° 27° (NNE) 2,553 10.7 -17.8°
Reaches altitude 10° 12:13:39 10° 41° (NE) 1,676 10.0 -17.3°
Maximum altitude 12:16:37 24° 97° (E) 1,064 9.1 -16.7°
Drops below altitude 10° 12:19:34 10° 152° (SSE) 1,681 9.6 -16.1°
Sets 12:21:56 0° 166° (SSE) 2,562 10.3 -15.6°
